Vancouver, WA

12:24 AM PST on January 24, 2017 (GMT -0800)
Portland International

Weather History for KPDX - May, 2014

Change the Weather History Date:

Friday, May 9, 2014

  Actual Average Record
Temperature  
Mean Temperature 53 °F 57 °F  
Max Temperature 58 °F 67 °F 86 °F (1987)
Min Temperature 48 °F 47 °F 36 °F (1955)
Degree Days  
Heating Degree Days 12 8  
Month to date heating degree days 67 84  
Since 1 July heating degree days 4181 4047  
Cooling Degree Days 0 0  
Month to date cooling degree days 6 0  
Year to date cooling degree days 9 1  
Growing Degree Days 2 (Base 50)    
Moisture  
Dew Point 45 °F    
Average Humidity 83    
Maximum Humidity 93    
Minimum Humidity 72    
Precipitation  
Precipitation 0.26 in 0.08 in 0.68 in (2005)
Month to date precipitation 0.97 0.70  
Year to date precipitation 19.34 15.65  
Sea Level Pressure  
Sea Level Pressure 29.99 in    
Wind  
Wind Speed 10 mph (SSW)    
Max Wind Speed 25 mph    
Max Gust Speed 32 mph    
Visibility 10 miles    
Events Rain , Thunderstorm    
T = Trace of Precipitation, MM = Missing Value Source: NWS Daily Summary

Daily Weather History Graph

Daily Weather History Graph

Search for Another Location

Airport or City:

Trip Planner

Search our weather history database for the weather conditions in past years. The results will help you decide how hot, cold, wet, or windy it might be!

Date:

Astronomy

May. 09, 2014 Rise Set
Actual Time 5:46 AM PDT 8:27 PM PDT
Civil Twilight 5:12 AM PDT 9:01 PM PDT
Nautical Twilight 4:30 AM PDT 9:44 PM PDT
Astronomical Twilight 3:40 AM PDT 10:34 PM PDT
Moon 3:15 PM PDT (5/9) 3:08 AM PDT (5/9)
Length of Visible Light 15h 48m
Length of Day
14h 40m
Waxing Gibbous, 74% of the Moon is Illuminated
May 9
Waxing Gibbous
May 14
Full
May 21
Last Quarter
May 28
New
Jun 5
First Quarter

Hourly Weather History & Observations

Time (PDT) Temp. Dew Point Humidity Pressure Visibility Wind Dir Wind Speed Gust Speed Precip Events Conditions
12:53 AM 52.0 °F 48.0 °F 86% 29.88 in 10.0 mi SW 10.4 mph - 0.00 in   Overcast
1:53 AM 51.8 °F 48.2 °F 88% 29.90 in 10.0 mi SSW 10.4 mph - N/A   Overcast
2:53 AM 52.0 °F 46.0 °F 80% 29.91 in 10.0 mi SSW 13.8 mph - N/A   Overcast
3:53 AM 51.1 °F 46.9 °F 86% 29.92 in 10.0 mi SSW 15.0 mph 19.6 mph 0.00 in Rain Light Rain
4:53 AM 50.0 °F 48.2 °F 94% 29.93 in 10.0 mi SSW 10.4 mph - N/A Rain Light Rain
5:53 AM 50.0 °F 46.9 °F 89% 29.94 in 10.0 mi SSW 8.1 mph - 0.00 in   Overcast
6:53 AM 50.0 °F 46.9 °F 89% 29.96 in 10.0 mi SW 9.2 mph - N/A   Mostly Cloudy
7:53 AM 51.1 °F 46.9 °F 86% 29.97 in 10.0 mi South 9.2 mph - N/A   Scattered Clouds
8:53 AM 52.0 °F 46.0 °F 80% 29.99 in 10.0 mi SSW 11.5 mph - N/A   Overcast
9:53 AM 54.0 °F 46.0 °F 75% 29.98 in 10.0 mi SW 12.7 mph - 0.00 in   Mostly Cloudy
10:53 AM 54.0 °F 46.0 °F 75% 29.98 in 10.0 mi SSW 11.5 mph 21.9 mph 0.01 in   Mostly Cloudy
11:53 AM 55.9 °F 46.0 °F 69% 29.98 in 10.0 mi South 9.2 mph - N/A   Mostly Cloudy
12:37 PM 48.0 °F 42.1 °F 80% 30.00 in 4.0 mi SW 6.9 mph 32.2 mph 0.08 in Rain Heavy Small Hail
12:44 PM 48.9 °F 43.0 °F 80% 29.99 in 7.0 mi WSW 5.8 mph - 0.09 in Rain Light Rain
12:53 PM 51.1 °F 44.1 °F 77% 29.99 in 10.0 mi SW 8.1 mph - 0.09 in   Mostly Cloudy
1:42 PM 55.0 °F 46.9 °F 74% 29.98 in 10.0 mi South 9.2 mph - 0.00 in Rain , Thunderstorm Light Thunderstorms and Rain
1:53 PM 55.0 °F 46.9 °F 74% 29.97 in 10.0 mi South 8.1 mph - 0.00 in Rain , Thunderstorm Light Thunderstorms and Rain
2:12 PM 54.0 °F 46.9 °F 77% 29.99 in 10.0 mi West 16.1 mph - 0.06 in   Mostly Cloudy
2:53 PM 57.0 °F 46.0 °F 67% 29.99 in 10.0 mi West 15.0 mph - 0.06 in   Mostly Cloudy
3:53 PM 52.0 °F 46.0 °F 80% 29.99 in 4.0 mi WSW 6.9 mph 18.4 mph 0.04 in Rain Light Rain
4:53 PM 55.0 °F 45.0 °F 69% 29.99 in 10.0 mi WSW 11.5 mph - 0.02 in   Overcast
5:53 PM 52.0 °F 43.0 °F 71% 30.01 in 10.0 mi WSW 13.8 mph - 0.00 in Rain Light Rain
6:53 PM 51.1 °F 44.1 °F 77% 30.02 in 10.0 mi SW 10.4 mph - 0.00 in   Overcast
7:53 PM 50.0 °F 43.0 °F 77% 30.03 in 10.0 mi SSW 8.1 mph - N/A   Mostly Cloudy
8:53 PM 48.9 °F 44.1 °F 83% 30.04 in 10.0 mi South 5.8 mph - N/A   Overcast
9:53 PM 48.9 °F 44.1 °F 83% 30.05 in 10.0 mi ESE 8.1 mph - N/A   Mostly Cloudy
10:00 PM 48.9 °F 43.0 °F 80% 30.05 in 10.0 mi ESE 5.8 mph - N/A   Mostly Cloudy
10:36 PM 48.0 °F 44.1 °F 86% 30.06 in 10.0 mi Calm Calm - N/A   Overcast
10:53 PM 48.0 °F 44.1 °F 86% 30.06 in 10.0 mi South 9.2 mph - N/A   Overcast
11:53 PM 48.0 °F 44.1 °F 86% 30.06 in 10.0 mi South 13.8 mph - 0.00 in Rain Light Rain